Regional Weather Roundup
Issued by NWS

Home | Current Version | Previous Version | Text Only | Print | Product List | Glossary Off
Versions: 1 2 3 4 5 6 7 8 9 10 11 12 13 14 15 16 17 18 19 20 21 22 23 24 25 26 27 28 29 30 31 32 33 34 35 36 37 38 39 40 41 42 43 44 45 46 47 48 49 50

643
ASUS43 KFSD 100302
RWRSD

WEATHER ROUNDUP FOR SOUTH DAKOTA
NATIONAL WEATHER SERVICE SIOUX FALLS SD
900 PM CST TUE FEB 09 2016

NOTE: "FAIR" INDICATES FEW OR NO CLOUDS BELOW 12,000 FEET WITH NO
SIGNIFICANT WEATHER AND/OR OBSTRUCTIONS TO VISIBILITY.


SDZ001>005-009-010-012>017-100400-
NORTHWEST AND NORTH CENTRAL SOUTH DAKOTA

CITY           SKY/WX    TMP DP  RH WIND       PRES   REMARKS
BUFFALO          N/A     33  26  75 W8        29.96F WCI  26
FAITH            N/A     32  22  66 S6        30.04F WCI  26
MOBRIDGE       CLOUDY    33  22  63 SE6       30.05F WCI  28
$$

SDZ012>016-024>037-041>051-057-063-072>074-100400-
SOUTHWEST AND SOUTH CENTRAL SOUTH DAKOTA

CITY           SKY/WX    TMP DP  RH WIND       PRES   REMARKS
RAPID CTY ARPT CLEAR     28  24  85 CALM      30.08F
PIERRE         CLOUDY    31  23  72 SE3       30.09F
CUSTER         CLEAR     40  24  53 NW15G25   30.10F
ELLSWORTH AFB  CLEAR     37  28  70 W7        30.07F
PHILIP         CLEAR     32  26  78 W6        30.08F WCI  26
PINE RIDGE     CLEAR     32  27  81 SW6       30.10F WCI  26
WINNER         CLOUDY    34  23  64 SW6       30.10F WCI  29
$$

SDZ004>011-016>023-039-040-100400-
NORTHEAST SOUTH DAKOTA

CITY           SKY/WX    TMP DP  RH WIND       PRES   REMARKS
ABERDEEN       CLOUDY    23  14  68 NE10      30.14F WCI  12
WATERTOWN      CLOUDY    19   9  65 NE5       30.11F WCI  12
BROOKINGS      CLOUDY    20  12  71 NE5       30.13F WCI  13
SISSETON         N/A     14   6  70 NE8       30.19S WCI   3
$$

SDZ017-020-022-023-036>040-048>070-100400-
SOUTHEAST SOUTH DAKOTA

CITY           SKY/WX    TMP DP  RH WIND       PRES   REMARKS
SIOUX FALLS    CLOUDY    22  14  71 E5        30.16F WCI  16
HURON          CLOUDY    26  17  68 S8        30.13F WCI  18
MITCHELL       CLOUDY    28  17  63 S5        30.16F WCI  23
YANKTON        CLOUDY    25  12  58 S5        30.18F WCI  19
$$

ABBREVIATIONS USED IN REMARKS
   TC - TEMPERATURE IN CELSIUS
  WCI - WIND CHILL INDEX
   HX - HEAT INDEX
  VSB - VISIBILITY





USA.gov is the U.S. government's official web portal to all federal, state and local government web resources and services.